"Pseudo-MPEC" for P112Yxd

Created 2020 Aug 6 7:07:09 UT using Find_Orb

Click here for an explanation of pseudo-MPECs

 
 Astrometry: 
     P112Yxd  C2020 07 218U5+,ob/Sf`5rOn,$Z@4#VfgckAstrometryr9;eredacted;o*pF51
     P112Yxd  C2020 07 21UyXdSxKBKT6Ca:#[(ZclickknGk1mJhere.)slyNl1mydrA5LW2gF51
     P112Yxd  C2020 07 21Ki#-JfornUq:fdXjLa?:Fe%mdiexplanatione+Xlj3AZ6N^_]UyF51

Station data:
(F51) Pan-STARRS 1, Haleakala  (N20.707235 W156.255910)  US/Hawaii.
   Observers N. Primak, A. Schultz, S. Watters, J. Thiel, T. Goggia. Measurer
   PS1 Science Consortium. 1.8-m Ritchey-Chrétien + CCD.

Orbital elements:  P112Yxd
   Perihelion 2021 Mar 29.313083 +/- 186 TT =  7:30:50 (JD 2459302.813083)
Epoch 2020 Jul 21.0 TT = JDT 2459051.5   Earth MOID: 0.7116   AutoNEOCP
M 261.52966735 +/- 70               (J2000 ecliptic)
n   0.39182334 +/- 0.264            Peri.  309.26118 +/- 100
a   1.84959160 +/- 0.832            Node    94.39059 +/- 32
e   0.1050825 +/- 0.286             Incl.   22.05597 +/- 25
P   2.52/918.76d           H 20.1   G  0.15   U 11.9  SR
q 1.65523179 +/- 0.806    Q 2.04395140 +/- 44.6
From 3 observations 2020 July 21 (39.1 min); mean residual 0".06
Residuals in arcseconds: 
200721 F51  .00   .08-    200721 F51  .00   .13+    200721 F51  .00   .04-    

Ephemerides (geocentric):
Date (UTC) HH   RA              Dec         delta   r     elong  mag " sig PA
---- -- -- --  -------------   -----------  ------ ------ -----  --- ---- ---
2020 08 06 07  18 52 34.795   -41 04 15.92  .96868 1.8768 142.3 22.4  25d  29
2020 08 06 08  18 52 32.220   -41 04 41.21  .96889 1.8768 142.3 22.4  25d  29
2020 08 06 09  18 52 29.650   -41 05 06.45  .96910 1.8767 142.2 22.4  25d  29
2020 08 06 10  18 52 27.085   -41 05 31.65  .96932 1.8766 142.2 22.4  25d  29
2020 08 06 11  18 52 24.525   -41 05 56.81  .96954 1.8766 142.2 22.4  25d  29
2020 08 06 12  18 52 21.969   -41 06 21.93  .96975 1.8765 142.1 22.4  25d  29
2020 08 06 13  18 52 19.418   -41 06 47.00  .96997 1.8765 142.1 22.4  25d  29
2020 08 06 14  18 52 16.871   -41 07 12.03  .97018 1.8764 142.0 22.4  25d  29
2020 08 06 15  18 52 14.330   -41 07 37.02  .97040 1.8764 142.0 22.4  25d  29
2020 08 06 16  18 52 11.793   -41 08 01.96  .97062 1.8763 141.9 22.4  25d  29
2020 08 06 17  18 52 09.261   -41 08 26.87  .97083 1.8763 141.9 22.4  25d  29
2020 08 06 18  18 52 06.734   -41 08 51.73  .97105 1.8762 141.8 22.4  26d  29
2020 08 06 19  18 52 04.211   -41 09 16.55  .97127 1.8762 141.8 22.4  26d  29
2020 08 06 20  18 52 01.694   -41 09 41.33  .97149 1.8761 141.8 22.4  26d  29
2020 08 06 21  18 51 59.181   -41 10 06.06  .97171 1.8761 141.7 22.4  26d  29
2020 08 06 22  18 51 56.673   -41 10 30.75  .97192 1.8760 141.7 22.4  26d  29
2020 08 06 23  18 51 54.169   -41 10 55.40  .97214 1.8759 141.6 22.4  26d  29
2020 08 07 00  18 51 51.671   -41 11 20.01  .97236 1.8759 141.6 22.4  26d  29
2020 08 07 01  18 51 49.177   -41 11 44.58  .97258 1.8758 141.5 22.4  26d  29
2020 08 07 02  18 51 46.688   -41 12 09.10  .97280 1.8758 141.5 22.4  26d  29
2020 08 07 03  18 51 44.204   -41 12 33.59  .97302 1.8757 141.4 22.4  26d  29
2020 08 07 04  18 51 41.725   -41 12 58.03  .97324 1.8757 141.4 22.4  26d  29
2020 08 07 05  18 51 39.251   -41 13 22.43  .97346 1.8756 141.4 22.4  26d  29
2020 08 07 06  18 51 36.781   -41 13 46.78  .97368 1.8756 141.3 22.4  26d  29
2020 08 07 07  18 51 34.317   -41 14 11.10  .97390 1.8755 141.3 22.4  26d  29
2020 08 07 08  18 51 31.857   -41 14 35.37  .97412 1.8755 141.2 22.4  26d  29
2020 08 07 09  18 51 29.402   -41 14 59.60  .97435 1.8754 141.2 22.4  26d  29
2020 08 07 10  18 51 26.952   -41 15 23.79  .97457 1.8753 141.1 22.4  26d  29
2020 08 07 11  18 51 24.507   -41 15 47.94  .97479 1.8753 141.1 22.4  26d  29
2020 08 07 12  18 51 22.066   -41 16 12.05  .97501 1.8752 141.0 22.4  26d  29
2020 08 07 13  18 51 19.631   -41 16 36.11  .97524 1.8752 141.0 22.4  26d  29
2020 08 07 14  18 51 17.200   -41 17 00.13  .97546 1.8751 140.9 22.4  26d  29
2020 08 07 15  18 51 14.775   -41 17 24.11  .97568 1.8751 140.9 22.4  26d  29
2020 08 07 16  18 51 12.354   -41 17 48.05  .97591 1.8750 140.9 22.4  26d  29
2020 08 07 17  18 51 09.938   -41 18 11.95  .97613 1.8750 140.8 22.4  26d  29
2020 08 07 18  18 51 07.527   -41 18 35.81  .97635 1.8749 140.8 22.4  26d  29
2020 08 07 19  18 51 05.121   -41 18 59.62  .97658 1.8749 140.7 22.4  26d  29
2020 08 07 20  18 51 02.720   -41 19 23.40  .97680 1.8748 140.7 22.4  26d  29
2020 08 07 21  18 51 00.324   -41 19 47.13  .97703 1.8748 140.6 22.4  26d  29
2020 08 07 22  18 50 57.933   -41 20 10.82  .97725 1.8747 140.6 22.4  26d  29
2020 08 07 23  18 50 55.547   -41 20 34.47  .97748 1.8746 140.5 22.4  26d  29
2020 08 08 00  18 50 53.166   -41 20 58.08  .97771 1.8746 140.5 22.4  26d  30
2020 08 08 01  18 50 50.789   -41 21 21.64  .97793 1.8745 140.5 22.4  26d  30
2020 08 08 02  18 50 48.418   -41 21 45.17  .97816 1.8745 140.4 22.4  26d  30
2020 08 08 03  18 50 46.051   -41 22 08.65  .97838 1.8744 140.4 22.4  26d  30
2020 08 08 04  18 50 43.690   -41 22 32.09  .97861 1.8744 140.3 22.4  26d  30
2020 08 08 05  18 50 41.334   -41 22 55.50  .97884 1.8743 140.3 22.4  26d  30
2020 08 08 06  18 50 38.982   -41 23 18.86  .97907 1.8743 140.2 22.4  26d  30